Starlink 11488

operational
NORAD ID: 62222 Int'l Des: 2024-231 Owner: SPXS Country: US Constellation: starlink
LEOCIRCULAR

Über Starlink 11488

Beschreibung wird geladen...

Live-Position

3D-Globus wird geladen...

Nächste Überflüge

Höhenverlauf

Altitude vs Time

uPlot chart will show altitude changes over time

Zweizeiliger Elementsatz

1 62222U 24231E 26036.17909520 .00217672 00000-0 17460-2 0 9991
2 62222 53.1560 261.6531 0003640 177.8998 182.2036 15.69827948 68300
Epoch: 5. Feb. 2026 • Age: 20 hours

Aktueller Status

Höhe 361.5 km
Geschwindigkeit 7.69 km/s
Subsatellitenpunkt 1.77°N, 120.2°E
Startdatum 5. Dez. 2024
Alter 1.1 years
Typ internet

Technische Details

Klassifizierung Payload
Masse 960.00 kg
Trockenmasse 910.00 kg
Gesamtmasse 960.00 kg
Länge 0.30 m
Durchmesser 4.10 m
Spannweite 29.00 m
Form Box + pan
Hersteller SPXS
Bus-Typ Starlink V2MD
Phasenstatus In Orbit
Besitzer/Staat SPXS/US

Große Konstellationen

Loading constellations...